Regional Weather Roundup
Issued by NWS

Home | Current Version | Previous Version | Text Only | Print | Product List | Glossary On
Versions: 1 2 3 4 5 6 7 8 9 10 11 12 13 14 15 16 17 18 19 20 21 22 23 24 25 26 27
000
ASUS45 KBOU 172107
RWRCO

WEATHER ROUNDUP FOR COLORADO
NATIONAL WEATHER SERVICE DENVER/BOULDER CO
300 PM MDT TUE OCT 17 2017

NOTE: "FAIR" INDICATES FEW OR NO CLOUDS BELOW 12000 FEET WITH NO
SIGNIFICANT WEATHER AND/OR OBSTRUCTIONS TO VISIBILITY.

COZ001>005-013-030-031-172200-
...NORTHWEST COLORADO...

CITY           SKY/WX    TMP DP  RH WIND       PRES   REMARKS
CRAIG          FAIR      70   6   8 W13       30.24F
HAYDEN         FAIR      64  11  12 VRB5      30.27F
MEEKER         FAIR      71   3   7 NW8       30.25F
RABBIT EARS PA FAIR      48  10  21 W5        30.46F
STEAMBOAT SPGS FAIR      64   8  11 CALM      30.28F
WALDEN         FAIR      63   7  11 SW16      30.32F
$$

COZ006>008-011-172200-
...WEST CENTRAL VALLEYS...

CITY           SKY/WX    TMP DP  RH WIND       PRES   REMARKS
GRAND JUNCTION FAIR      68  16  13 W6        30.23F
MONTROSE       FAIR      68  15  13 N7        30.27F
EAGLE          FAIR      69  11  10 CALM      30.28F
RIFLE          FAIR      67   8  10 VRB5      30.24F
DELTA          FAIR      71  10   9 SW7       30.24F
NUCLA          FAIR      72   3   7 W3        30.31F
$$

COZ017>023-064>068-172200-
...SOUTHWEST COLORADO...

CITY           SKY/WX    TMP DP  RH WIND       PRES   REMARKS
DURANGO        FAIR      68  10  10 SW7       30.29F
CORTEZ         FAIR      71  12  10 SW7       30.28F
PAGOSA SPRINGS FAIR      67   6   9 S6        30.35F
TELLURIDE      FAIR      64  -1   7 W13       30.42F
WOLF CREEK PAS FAIR      48  10  21 S13G22    30.61F
$$

COZ009-010-012-014-032>034-037-058>063-172200-
...CENTRAL COLORADO...

CITY           SKY/WX    TMP DP  RH WIND       PRES   REMARKS
ASPEN          FAIR      66   4   8 VRB6      30.31F
BUENA VISTA    FAIR      68  -1   6 E3        30.29F
COPPER MTN     FAIR      50  -9   8 W17G23    30.54F
BERTHOUD PASS  FAIR      36  28  75 NW21G30   30.55S
COTTONWOOD PAS FAIR      68  -9   4 SE8       30.41F
GUNNISON       NOT AVBL
KREMMLING      FAIR      72  -6   4 SW17      30.30F
LEADVILLE      FAIR      57  -5   8 NW12G21   30.41F
SALIDA         NOT AVBL
SUNLIGHT       FAIR      52   5  15 SW9G17    30.53F
WILKERSON PASS FAIR      54   0  11 SW10G20   30.51F
$$

COZ069>075-172200-
...SAN LUIS VALLEY/SANGRE DE CRISTO MOUNTAINS...

CITY           SKY/WX    TMP DP  RH WIND       PRES   REMARKS
ALAMOSA        FAIR      66   8  10 SW6       30.31F
DEL NORTE      FAIR      65  15  14 E6        30.33F
LA VETA PASS   FAIR      59  10  14 S23G33    30.54F
SAGUACHE       FAIR      66  10  11 S7        30.32F
$$

COZ035-036-038>040-172200-
...NORTHERN COLORADO FRONT RANGE...

CITY           SKY/WX    TMP DP  RH WIND       PRES   REMARKS
DENVER INTL AP FAIR      76   9   7 VRB3      30.12F
DMNS CITY PARK   N/A     77   8   7 NE3G12    30.11F
AURORA         MOSUNNY   75   5   6 CALM      30.14F
FRONT RANGE AP MOSUNNY   77  10   8 NW3       30.14F
ERIE MUNI ARPT FAIR      78   8   7 NW5       30.15F
BOULDER MUN AP FAIR      73  19  13 CALM      30.11F
CENTENNIAL     FAIR      74   2   6 N6        30.15F
BROOMFIELD     MOSUNNY   75  12   9 CALM      30.14F
FORT COLLINS   FAIR      75  24  15 SE7       30.11F
LONGMONT       FAIR      82  15   8 SW6       30.11F
$$

COZ041-046-047-076>085-087-088-172200-
...PIKES PEAK/PALMER DIVIDE AND SOUTHERN FOOTHILLS...

CITY           SKY/WX    TMP DP  RH WIND       PRES   REMARKS
COLO. SPRINGS  FAIR      72  12  10 SE7       30.18F
A. F. ACADEMY  FAIR      71   4   7 S9        30.19F
SCHRIEVER AFB  FAIR      70  11  10 S3        30.19F
CHEYENNE MTN   FAIR      68  12  11 S8        30.17F
ELLICOTT       FAIR     N/A N/A N/A S8        30.17F
FALCON         FAIR      71   7   8 SE8       30.23F
FORT CARSON    FAIR      74   3   6 S7        30.15F
LIMON          FAIR      74  13   9 S13       30.14F
MONUMENT HILL  NOT AVBL
CANON CITY     SUNNY     81   5   5 CALM      30.11F
WALSENBURG     FAIR      79  18  10 SE5       30.17F
TRINIDAD       FAIR      75  14  10 VRB3      30.16F
$$

COZ042>045-048>051-090-091-172200-
...NORTHEAST COLORADO...

CITY           SKY/WX    TMP DP  RH WIND       PRES   REMARKS
GREELEY ARPT   FAIR      74  21  13 S7        30.10F
AKRON          FAIR      78  12   8 SW10      30.09F
BURLINGTON     FAIR      79  19  10 SE6       30.10F
WRAY           FAIR      81  19  10 SW8       30.06F
YUMA           NOT AVBL
STERLING       FAIR      79  18  10 W10G17    30.04F
HOLYOKE        FAIR      82  19   9 S12       30.05F
FORT MORGAN    FAIR      80  10   7 W8        30.09F
$$

COZ086-089-092>099-172200-
...SOUTHEAST COLORADO...

CITY           SKY/WX    TMP DP  RH WIND       PRES   REMARKS
PUEBLO         FAIR      78   9   7 SE5       30.09F
LA JUNTA       FAIR      79  21  11 SE7       30.08F
LAMAR          FAIR      79  24  13 SE9       30.05F
SPRINGFIELD      N/A     77  32  19 E6        30.08F
$$




USA.gov is the U.S. government's official web portal to all federal, state and local government web resources and services.